Weather History for Hanford, CA

Change the Weather History Date:

Monday, January 23, 2012

  Actual Average Record
Temperature  
Mean Temperature 52 °F 46 °F  
Max Temperature 63 °F 55 °F 68 °F (2014)
Min Temperature 41 °F 37 °F 23 °F (2007)
Degree Days  
Heating Degree Days 13    
Month to date heating degree days 429  
Since 1 July heating degree days 1639  
Cooling Degree Days 0    
Month to date cooling degree days 0  
Year to date cooling degree days 0  
Growing Degree Days 5 (Base 50)    
Moisture  
Dew Point 45 °F    
Average Humidity 71    
Maximum Humidity 86    
Minimum Humidity 56    
Precipitation  
Precipitation 0.14 in 0.05 in 0.65 in (2008)
Month to date precipitation 0.61 1.77  
Year to date precipitation 0.61 1.77  
Since 1 July precipitation 1.85  
Snow  
Snow 0.00 in - - ()
Month to date snowfall 0.0  
Since 1 July snowfall 0.0  
Snow Depth 0.00 in    
Sea Level Pressure  
Sea Level Pressure 29.95 in    
Wind  
Wind Speed 8 mph (NE)    
Max Wind Speed 14 mph    
Max Gust Speed 32 mph    
Visibility 10 miles    
Events Rain , Thunderstorm    
T = Trace of Precipitation, MM = Missing Value Source: NWS Daily Summary

Daily Weather History Graph

Daily Weather History Graph

Search for Another Location

Airport:

Trip Planner

Search our weather history database for the weather conditions in past years. The results will help you decide how hot, cold, wet, or windy it might be!

Date:

Astronomy

Jan. 23, 2012 Rise Set
Actual Time 7:06 AM PST 5:14 PM PST
Civil Twilight 6:38 AM PST 5:42 PM PST
Nautical Twilight 6:07 AM PST 6:13 PM PST
Astronomical Twilight 5:36 AM PST 6:44 PM PST
Moon 7:06 AM PST (1/23) 6:05 PM PST (1/23)
Length of Visible Light 11h 04m
Length of Day
10h 08m
New Moon, 0% of the Moon is Illuminated
Jan 23
New Moon
Jan 30
First Quarter
Feb 7
Full
Feb 14
Last Quarter
Feb 21
New

Hourly Weather History & Observations

Time (PST) Temp. Dew Point Humidity Pressure Visibility Wind Dir Wind Speed Gust Speed Precip Events Conditions
12:53 AM 48.0 °F 44.1 °F 86% 30.00 in 9.0 mi SSE 3.5 mph - 0.03 in Rain Light Rain
1:53 AM 48.0 °F 44.1 °F 86% 29.99 in 8.0 mi ESE 5.8 mph - 0.03 in   Overcast
2:53 AM 48.0 °F 43.0 °F 83% 29.97 in 9.0 mi ESE 9.2 mph - 0.00 in Rain Light Rain
4:13 AM 48.2 °F 44.6 °F 87% 29.90 in 10.0 mi North - - N/A   Overcast
5:53 AM 50.0 °F 44.1 °F 80% 29.86 in 10.0 mi ESE 5.8 mph - 0.00 in Rain Light Rain
6:53 AM 51.1 °F 43.0 °F 74% 29.88 in 10.0 mi Variable 3.5 mph - 0.00 in   Overcast
7:53 AM 51.1 °F 44.1 °F 77% 29.89 in 10.0 mi South 10.4 mph - N/A   Scattered Clouds
8:53 AM 52.0 °F 46.9 °F 83% 29.90 in 10.0 mi WSW 11.5 mph 18.4 mph 0.00 in   Mostly Cloudy
9:53 AM 54.0 °F 48.0 °F 80% 29.92 in 10.0 mi North - - N/A   Partly Cloudy
10:53 AM 57.0 °F 48.9 °F 74% 29.92 in 10.0 mi SSE 6.9 mph - N/A   Clear
11:53 AM 57.9 °F 48.9 °F 72% 29.89 in 10.0 mi SE 5.8 mph - N/A   Mostly Cloudy
12:53 PM 61.0 °F 50.0 °F 67% 29.87 in 10.0 mi SE 5.8 mph - N/A   Partly Cloudy
1:53 PM 62.1 °F 46.9 °F 58% 29.86 in 10.0 mi South 5.8 mph - 0.00 in   Clear
2:34 PM 62.6 °F 46.4 °F 55% 29.87 in 10.0 mi WSW 6.9 mph - N/A Thunderstorm Thunderstorm
2:49 PM 55.4 °F 46.4 °F 72% 29.88 in 10.0 mi NNE 13.8 mph 26.5 mph 0.03 in Rain Light Rain
2:53 PM 55.9 °F 45.0 °F 67% 29.89 in 10.0 mi NE 12.7 mph 21.9 mph 0.03 in Rain Light Rain
3:00 PM 55.4 °F 44.6 °F 67% 29.89 in 10.0 mi NE 9.2 mph 17.3 mph 0.00 in   Overcast
3:53 PM 59.0 °F 46.0 °F 62% 29.93 in 10.0 mi North 5.8 mph 32.2 mph 0.00 in   Overcast
4:53 PM 57.0 °F 46.0 °F 67% 29.97 in 10.0 mi North 12.7 mph 21.9 mph N/A   Mostly Cloudy
5:53 PM 53.1 °F 46.9 °F 80% 30.01 in 10.0 mi NNW 8.1 mph - N/A   Mostly Cloudy
6:53 PM 53.1 °F 45.0 °F 74% 30.03 in 10.0 mi NNW 9.2 mph - N/A   Overcast
7:53 PM 50.0 °F 44.1 °F 80% 30.04 in 10.0 mi NW 10.4 mph - N/A   Scattered Clouds
8:53 PM 50.0 °F 43.0 °F 77% 30.06 in 10.0 mi NW 12.7 mph - N/A   Clear
9:53 PM 50.0 °F 43.0 °F 77% 30.10 in 10.0 mi NW 8.1 mph - N/A   Partly Cloudy
10:53 PM 48.0 °F 42.1 °F 80% 30.13 in 10.0 mi NNW 4.6 mph - N/A   Clear
11:53 PM 43.0 °F 39.0 °F 86% 30.16 in 10.0 mi Calm Calm - N/A   Mostly Cloudy